Total_Precipitation_Accumulation
0.20 0.24 0.28 0.34 0.27 0.16 0.07 0.02 0.00 0.01 0.01 0.01 0.01 0.02 0.01 0.02 0.03 0.05 0.02 0.00 0.00 0.01 0.04 0.09 0.17 0.19 0.15 0.11 0.07 0.04 0.04 0.05 0.07 0.10 0.11 0.11 0.09 0.10 0.13 0.16 0.19 0.21 0.22 0.26 0.30 0.31 0.27 0.25 0.20
0.25 0.33 0.46 0.49 0.31 0.17 0.06 0.02 0.01 0.01 0.01 0.01 0.01 0.01 0.01 0.02 0.02 0.03 0.02 0.01 0.00 0.01 0.03 0.07 0.13 0.16 0.14 0.10 0.05 0.04 0.04 0.05 0.07 0.09 0.11 0.12 0.11 0.12 0.15 0.16 0.17 0.17 0.20 0.21 0.18 0.13 0.11 0.12 0.10
0.39 0.52 0.63 0.54 0.37 0.19 0.07 0.01 0.01 0.01 0.01 0.01 0.01 0.01 0.03 0.04 0.03 0.03 0.03 0.02 0.01 0.01 0.02 0.07 0.11 0.14 0.12 0.08 0.05 0.04 0.05 0.05 0.06 0.08 0.11 0.12 0.11 0.12 0.13 0.14 0.13 0.13 0.13 0.10 0.06 0.05 0.05 0.05 0.04
0.58 0.78 0.77 0.58 0.36 0.16 0.05 0.02 0.01 0.01 0.01 0.01 0.02 0.03 0.05 0.04 0.04 0.05 0.06 0.04 0.01 0.02 0.04 0.09 0.12 0.13 0.11 0.07 0.05 0.05 0.05 0.05 0.06 0.06 0.08 0.11 0.12 0.11 0.11 0.09 0.07 0.07 0.06 0.05 0.03 0.03 0.03 0.02 0.01
0.79 0.92 0.84 0.57 0.27 0.12 0.05 0.03 0.02 0.02 0.02 0.02 0.04 0.05 0.10 0.07 0.06 0.09 0.10 0.07 0.03 0.03 0.06 0.12 0.14 0.13 0.10 0.07 0.05 0.05 0.06 0.05 0.05 0.05 0.07 0.09 0.12 0.11 0.08 0.05 0.04 0.04 0.03 0.03 0.03 0.02 0.02 0.01 0.01
0.94 1.02 0.84 0.49 0.19 0.07 0.05 0.04 0.04 0.03 0.02 0.04 0.06 0.10 0.16 0.14 0.11 0.14 0.17 0.11 0.05 0.05 0.08 0.16 0.20 0.15 0.10 0.07 0.06 0.06 0.06 0.05 0.05 0.06 0.07 0.09 0.10 0.08 0.06 0.04 0.04 0.04 0.03 0.03 0.03 0.02 0.02 0.01 0.01
0.89 0.91 0.66 0.35 0.13 0.07 0.05 0.06 0.07 0.06 0.04 0.05 0.07 0.14 0.25 0.26 0.23 0.21 0.23 0.20 0.13 0.10 0.13 0.20 0.24 0.21 0.14 0.10 0.08 0.06 0.05 0.05 0.06 0.06 0.07 0.06 0.06 0.05 0.04 0.04 0.04 0.04 0.03 0.03 0.03 0.03 0.02 0.02 0.01
0.83 0.98 0.58 0.32 0.14 0.09 0.06 0.07 0.08 0.08 0.06 0.06 0.10 0.16 0.26 0.31 0.35 0.34 0.34 0.37 0.31 0.23 0.21 0.23 0.25 0.21 0.15 0.11 0.09 0.06 0.05 0.04 0.05 0.04 0.03 0.04 0.04 0.03 0.03 0.02 0.02 0.02 0.02 0.02 0.03 0.03 0.03 0.02 0.01
0.79 1.02 0.61 0.27 0.17 0.10 0.09 0.10 0.10 0.09 0.10 0.10 0.11 0.16 0.26 0.36 0.47 0.48 0.49 0.51 0.50 0.42 0.32 0.27 0.26 0.21 0.14 0.11 0.09 0.07 0.05 0.04 0.03 0.03 0.02 0.02 0.03 0.02 0.02 0.01 0.01 0.01 0.01 0.01 0.02 0.02 0.02 0.01 0.01
0.74 0.77 0.52 0.28 0.20 0.16 0.15 0.15 0.16 0.17 0.16 0.15 0.18 0.27 0.41 0.60 0.69 0.63 0.49 0.47 0.45 0.46 0.42 0.33 0.27 0.21 0.16 0.12 0.10 0.09 0.07 0.04 0.03 0.02 0.02 0.02 0.03 0.02 0.01 0.01 0.01 0.01 0.01 0.01 0.01 0.01 0.01 0.00 0.00
0.50 0.44 0.37 0.34 0.29 0.24 0.24 0.21 0.18 0.22 0.20 0.16 0.16 0.26 0.45 0.74 0.87 0.81 0.73 0.57 0.46 0.43 0.45 0.44 0.35 0.24 0.17 0.13 0.09 0.07 0.06 0.04 0.03 0.02 0.02 0.02 0.02 0.01 0.01 0.01 0.01 0.01 0.01 0.01 0.01 0.00 0.00 0.00 0.00
0.34 0.29 0.34 0.41 0.37 0.30 0.27 0.24 0.21 0.21 0.19 0.14 0.16 0.22 0.39 0.65 0.82 0.83 0.90 0.80 0.66 0.53 0.45 0.48 0.44 0.32 0.21 0.14 0.09 0.07 0.05 0.04 0.02 0.02 0.01 0.02 0.01 0.01 0.01 0.01 0.01 0.01 0.01 0.01 0.01 0.00 0.00 0.00 0.00
0.28 0.28 0.32 0.37 0.38 0.31 0.28 0.26 0.24 0.17 0.18 0.20 0.22 0.31 0.41 0.62 0.83 0.93 1.05 1.12 0.94 0.69 0.56 0.55 0.50 0.39 0.30 0.22 0.14 0.08 0.05 0.04 0.03 0.02 0.02 0.01 0.01 0.01 0.00 0.00 0.01 0.01 0.00 0.01 0.00 0.00 0.00 0.00 0.00
0.24 0.29 0.33 0.35 0.37 0.32 0.32 0.29 0.25 0.18 0.19 0.27 0.28 0.31 0.38 0.60 0.79 0.94 1.10 1.14 0.99 0.84 0.75 0.70 0.64 0.51 0.39 0.30 0.20 0.11 0.05 0.04 0.03 0.02 0.02 0.02 0.01 0.01 0.01 0.00 0.01 0.00 0.01 0.00 0.00 0.00 0.00 0.00 0.00
0.30 0.38 0.41 0.40 0.38 0.35 0.34 0.34 0.22 0.16 0.20 0.27 0.28 0.28 0.31 0.46 0.68 0.82 0.96 1.01 1.01 0.91 0.89 0.83 0.79 0.71 0.54 0.41 0.35 0.22 0.14 0.10 0.07 0.05 0.04 0.03 0.02 0.02 0.01 0.01 0.01 0.01 0.01 0.01 0.01 0.01 0.00 0.00 0.00
0.54 0.56 0.48 0.36 0.37 0.35 0.38 0.33 0.16 0.15 0.21 0.24 0.27 0.27 0.28 0.35 0.54 0.74 0.87 1.03 1.11 1.03 0.95 0.91 0.91 0.83 0.75 0.61 0.52 0.40 0.27 0.21 0.14 0.10 0.06 0.05 0.03 0.02 0.02 0.02 0.01 0.02 0.02 0.02 0.01 0.01 0.01 0.01 0.01
0.76 0.57 0.34 0.28 0.31 0.32 0.32 0.27 0.15 0.15 0.21 0.21 0.25 0.27 0.26 0.31 0.42 0.62 0.80 0.94 1.09 1.09 1.07 1.00 0.93 0.96 1.01 0.98 0.85 0.69 0.50 0.40 0.33 0.25 0.15 0.09 0.06 0.05 0.04 0.04 0.03 0.02 0.02 0.01 0.01 0.01 0.01 0.01 0.01
0.47 0.31 0.23 0.24 0.25 0.24 0.23 0.22 0.17 0.15 0.19 0.19 0.22 0.26 0.27 0.29 0.33 0.44 0.64 0.84 1.09 1.24 1.24 1.15 1.12 1.13 1.28 1.37 1.24 1.08 0.81 0.63 0.49 0.37 0.30 0.22 0.16 0.12 0.08 0.06 0.05 0.04 0.03 0.03 0.03 0.02 0.02 0.01 0.02
0.35 0.28 0.23 0.22 0.20 0.21 0.19 0.20 0.19 0.17 0.16 0.16 0.18 0.21 0.24 0.25 0.31 0.39 0.49 0.72 1.01 1.21 1.32 1.28 1.16 1.18 1.34 1.31 1.13 0.99 0.86 0.78 0.66 0.56 0.49 0.40 0.30 0.23 0.16 0.12 0.10 0.08 0.07 0.06 0.05 0.04 0.03 0.03 0.02
0.48 0.40 0.29 0.25 0.22 0.23 0.19 0.19 0.17 0.16 0.14 0.13 0.15 0.15 0.17 0.20 0.25 0.34 0.39 0.52 0.73 0.99 1.17 1.24 1.24 1.27 1.31 1.27 1.23 1.21 1.24 1.18 1.06 0.93 0.71 0.54 0.44 0.35 0.28 0.21 0.17 0.15 0.14 0.13 0.12 0.11 0.08 0.06 0.06
0.60 0.48 0.34 0.28 0.30 0.28 0.23 0.22 0.14 0.11 0.09 0.09 0.12 0.13 0.13 0.15 0.20 0.25 0.29 0.37 0.50 0.67 0.89 1.00 1.11 1.16 1.22 1.38 1.62 1.64 1.54 1.32 1.08 0.87 0.78 0.74 0.71 0.63 0.52 0.46 0.36 0.29 0.24 0.20 0.20 0.19 0.16 0.14 0.11
0.60 0.38 0.35 0.34 0.43 0.41 0.28 0.27 0.12 0.08 0.06 0.05 0.08 0.11 0.10 0.11 0.15 0.19 0.21 0.25 0.35 0.44 0.62 0.79 0.97 1.08 1.08 1.17 1.33 1.41 1.37 1.12 0.94 0.92 0.95 0.98 0.94 0.87 0.80 0.70 0.58 0.47 0.39 0.33 0.34 0.32 0.29 0.27 0.23
0.53 0.35 0.42 0.48 0.52 0.48 0.29 0.23 0.13 0.07 0.06 0.04 0.05 0.07 0.07 0.08 0.11 0.13 0.13 0.16 0.20 0.30 0.47 0.63 0.77 0.95 0.98 1.00 1.08 1.27 1.36 1.31 1.23 1.13 1.05 0.97 0.94 0.91 0.88 0.81 0.74 0.62 0.55 0.51 0.50 0.47 0.46 0.43 0.40
0.62 0.63 0.71 0.77 0.91 0.78 0.26 0.18 0.11 0.05 0.05 0.04 0.03 0.04 0.04 0.06 0.08 0.08 0.08 0.11 0.14 0.19 0.28 0.42 0.58 0.78 0.92 0.98 1.04 1.11 1.20 1.27 1.23 1.12 1.06 1.02 0.98 0.92 0.88 0.85 0.80 0.76 0.70 0.64 0.63 0.64 0.60 0.56 0.53
1.03 1.31 1.56 1.51 1.31 0.64 0.14 0.12 0.09 0.03 0.03 0.04 0.03 0.03 0.04 0.04 0.05 0.06 0.06 0.07 0.10 0.13 0.17 0.24 0.32 0.45 0.65 0.83 0.95 1.01 1.08 1.15 1.14 1.10 1.07 1.07 1.00 0.90 0.86 0.91 0.88 0.85 0.82 0.79 0.78 0.71 0.65 0.64 0.61
1.03 1.17 1.17 0.97 0.61 0.27 0.12 0.11 0.07 0.02 0.02 0.03 0.02 0.03 0.04 0.03 0.03 0.04 0.05 0.07 0.08 0.09 0.10 0.14 0.19 0.25 0.36 0.53 0.63 0.72 0.85 0.95 0.95 0.95 0.91 0.90 0.88 0.86 0.89 0.92 0.92 0.88 0.84 0.81 0.77 0.72 0.67 0.67 0.68
0.96 0.86 0.65 0.74 0.53 0.34 0.17 0.07 0.04 0.02 0.03 0.04 0.04 0.03 0.03 0.04 0.03 0.03 0.04 0.05 0.06 0.06 0.06 0.08 0.10 0.15 0.22 0.31 0.41 0.50 0.58 0.65 0.69 0.69 0.68 0.71 0.72 0.71 0.70 0.71 0.76 0.76 0.73 0.73 0.74 0.70 0.66 0.66 0.64
0.87 0.72 0.75 0.96 0.76 0.49 0.20 0.07 0.06 0.05 0.06 0.07 0.06 0.04 0.03 0.03 0.03 0.03 0.03 0.03 0.04 0.04 0.04 0.05 0.06 0.09 0.14 0.19 0.26 0.33 0.42 0.46 0.52 0.57 0.55 0.53 0.55 0.56 0.56 0.56 0.56 0.57 0.57 0.58 0.61 0.60 0.60 0.61 0.57
0.68 0.77 0.80 0.79 0.61 0.58 0.35 0.14 0.07 0.07 0.10 0.11 0.09 0.05 0.03 0.03 0.03 0.03 0.03 0.02 0.02 0.03 0.05 0.05 0.05 0.06 0.08 0.12 0.17 0.19 0.24 0.29 0.35 0.40 0.41 0.40 0.39 0.39 0.40 0.39 0.40 0.40 0.41 0.41 0.42 0.44 0.47 0.50 0.51
0.52 0.52 0.62 0.82 0.62 0.49 0.42 0.19 0.06 0.07 0.10 0.13 0.13 0.09 0.05 0.03 0.03 0.03 0.03 0.02 0.03 0.04 0.05 0.05 0.05 0.06 0.07 0.08 0.10 0.13 0.17 0.20 0.22 0.26 0.28 0.27 0.27 0.28 0.28 0.28 0.27 0.27 0.27 0.27 0.27 0.30 0.33 0.37 0.41